Regional Weather Roundup
Issued by NWS

Home | Current Version | Previous Version | Text Only | Print | Product List | Glossary Off
Versions: 1 2 3 4 5 6 7 8 9 10 11 12 13 14 15 16 17 18 19 20 21 22 23 24 25 26 27 28 29 30 31 32 33 34 35 36 37 38 39 40 41 42 43 44 45 46 47 48 49 50

000
ASUS43 KDTX 200510
RWRMI
MICHIGAN HOURLY REGIONAL WEATHER ROUNDUP
NATIONAL WEATHER SERVICE DETROIT/PONTIAC MI
100 AM EDT SUN MAY 20 2018

NOTE: "FAIR" INDICATES FEW OR NO CLOUDS BELOW 12,000 FEET WITH NO
SIGNIFICANT WEATHER AND/OR OBSTRUCTION TO VISIBILITY.

MIZ047>049-052>055-059>063-066>070-074>076-081>083-200600-
SOUTHEAST LOWER MICHIGAN

CITY           SKY/WX    TMP DP  RH WIND       PRES   REMARKS
ADRIAN         MOCLDY    60  56  86 NW9       29.98R
ALMA           CLOUDY    58  56  94 W12G18    30.01R
ANN ARBOR      CLOUDY    63  58  83 W10       29.96R
BAD AXE        CLOUDY    53  53 100 N6        29.97R FOG
CARO           CLOUDY    59  56  89 NW9       29.97R
DETROIT CITY   CLOUDY    66  59  78 NW8       29.93R
DETROIT        CLOUDY    65  58  78 W9        29.95R
FLINT          CLOUDY    59  58  96 NW10      29.97R
GROSSE ILE     CLOUDY    65  62  90 NW6       29.93S
HILLSDALE      CLOUDY    57  54  88 NW12G17   29.98S
HOWELL         CLOUDY    59  58  95 NW7       29.98R FOG

CITY           SKY/WX    TMP DP  RH WIND       PRES   REMARKS
JACKSON        CLOUDY    59  55  87 W8        29.98S
LAMBERTVILLE   MOCLDY    64  59  85 CALM      29.95S
LANSING        CLOUDY    58  55  90 W8        30.00R
LAPEER         CLOUDY    60  59  97 NW6       29.96R FOG
MASON          CLOUDY    59  56  92 W6        29.99R
MONROE         CLOUDY    64  61  93 W8        29.94S
MT. CLEMENS    LGT RAIN  64  64 100 NW9         N/A
PONTIAC        LGT RAIN  61  61 100 NW13      29.94R FOG
PORT HOPE        N/A     49  48  97 N7        29.95R
PORT HURON     DRIZZLE   55  52  88 NE10      29.95R
TRI CITIES     CLOUDY    59  56  89 NW10      29.99R
MIDLAND        CLOUDY    56  53  89 NW5       29.99R
TROY           CLOUDY    65  61  87 W6        29.96R
SAGINAW HB     CLOUDY    59  55  88 NW10      29.97R
$$
MIZ043>046-050>051-056>058-064>065-071>073-077>080-200600-
SOUTHWEST LOWER MICHIGAN

CITY           SKY/WX    TMP DP  RH WIND       PRES   REMARKS
BATTLE CREEK   CLOUDY    57  54  89 NW10      30.01R
BENTON HARBOR  MOCLDY    54  51  90 VRB5      30.04R
BIG RAPIDS     MOCLDY    53  47  83 N10       30.03R
COLDWATER      CLOUDY    58  54  86 NW9       30.00R
FREMONT        CLOUDY    54  52  94 N5        30.03R
HOLLAND        MOCLDY    51  47  86 NW6       30.03R
GRAND RAPIDS   CLOUDY    57  54  89 NW7       30.02R
IONIA          CLOUDY    58  55  92 NW6       30.00R
KALAMAZOO      CLOUDY    57  54  89 N15       30.00S
LUDINGTON      MOCLDY    45  41  87 N13G22    30.05S
MARSHALL       CLOUDY    57  56  95 NW3       29.99S
MOUNT PLEASANT CLOUDY    56  54  90 N6        30.01R
MUSKEGON       CLOUDY    54  50  86 N8        30.04R
SOUTH HAVEN    CLOUDY    51  49  93 N5        30.05R FOG
$$
MIZ016>042-200600-
NORTHERN LOWER MICHIGAN

CITY           SKY/WX    TMP DP  RH WIND       PRES   REMARKS
ALPENA         FAIR      51  50  96 NW7       29.96R
BEAVER ISLAND  FAIR      44  40  85 NW8       30.05R
BELLAIRE       CLOUDY    43  39  87 W3        30.06R
CADILLAC       CLOUDY    46  41  80 NW8       30.05R
CHARLEVOIX     CLOUDY    43  43 100 W9        30.07R
FRANKFORT      CLOUDY    45  41  87 CALM      30.10R
GAYLORD        MOCLDY    44  43  96 W5        30.00R
GRAYLING       FAIR      48  46  93 W8        30.01R
HARBOR SPRINGS CLOUDY    42  41  98 SW5       30.02R
HOUGHTON LAKE  CLOUDY    50  48  93 NW9       30.02R
MANISTEE       CLOUDY    44  41  89 N7        30.09R
OSCODA         CLOUDY    53  51  94 NW6       29.96R
PELLSTON       CLOUDY    46  41  82 NW10      30.01R
ROGERS CITY    CLOUDY    47  44  87 NW7G16    29.98R
TRAVERSE CITY  CLOUDY    45  40  82 NW8       30.07R
$$
MIZ007>008-015-200600-
EASTERN UPPER MICHIGAN

CITY           SKY/WX    TMP DP  RH WIND       PRES   REMARKS
KINROSS        CLOUDY    43  40  89 NW7       30.00R
MACKINAC ISLAN CLOUDY    46  43  90 NW7       30.00R
NEWBERRY       MOCLDY    38  38  97 NW9G17    30.05R WCI  32
S. S. MARIE    CLOUDY    44  40  85 NW3       29.99R
MUNISING         N/A     39  37  92 NW18      30.12R WCI  30
$$
MIZ004>006-011>014-085-200600-
CENTRAL UPPER MICHIGAN

CITY           SKY/WX    TMP DP  RH WIND       PRES   REMARKS
MANISTIQUE     FAIR      40  38  94 N12G18    30.08R WCI  32
ESCANABA       CLOUDY    42  36  79 N12G21    30.12R
SAWYER-GWINN   CLOUDY    37  33  85 N15G24    30.15R WCI  28
$$
MIZ001>003-009>011-084-200600-
WESTERN UPPER MICHIGAN

CITY           SKY/WX    TMP DP  RH WIND       PRES   REMARKS
IRON MOUNTAIN  CLOUDY    43  36  76 N14       30.13R
HOUGHTON       FAIR      38  32  79 NE3       30.18S
COPPER HARBOR    N/A     40  35  83 N7        30.19S
IRONWOOD       FAIR      40  35  83 E8        30.21S WCI  34
$$

ABBREVIATIONS USED IN REMARKS
   TC - TEMPERATURE IN CELSIUS
  WCI - WIND CHILL INDEX
   HX - HEAT INDEX
  VSB - VISIBILITY




USA.gov is the U.S. government's official web portal to all federal, state and local government web resources and services.